| time (UTC) | temp F | wind direction | speed MPH | gust MPH | rain 1hr in | rain 24hr in | rain mn in | humidity % | barometer mb |
| 20260506032600 | 51 | 132 | 1.0 | 1.0 | 0.00 | 0.10 | 0.10 | 86 | 1010.4 |
| 20260506032056 | 51 | 143 | 1.0 | 1.0 | 0.00 | 0.10 | 0.10 | 85 | 1010.2 |
| 20260506031554 | 52 | 153 | 0.0 | 0.0 | 0.00 | 0.10 | 0.10 | 85 | 1010.1 |
| 20260506031050 | 53 | 199 | 1.0 | 1.0 | 0.00 | 0.10 | 0.10 | 85 | 1010.4 |
| 20260506030549 | 53 | 144 | 0.0 | 0.0 | 0.00 | 0.10 | 0.10 | 84 | 1010.4 |
| 20260506030046 | 53 | 176 | 0.0 | 1.0 | 0.00 | 0.10 | 0.10 | 84 | 1010.5 |
| 20260506025542 | 54 | 175 | 1.0 | 1.0 | 0.00 | 0.10 | 0.10 | 84 | 1010.3 |
| 20260506025038 | 54 | 132 | 1.0 | 1.0 | 0.00 | 0.10 | 0.10 | 84 | 1010.4 |
| 20260506024536 | 54 | 152 | 1.0 | 1.0 | 0.00 | 0.10 | 0.10 | 84 | 1010.4 |
| 20260506024032 | 54 | 233 | 2.0 | 3.0 | 0.00 | 0.10 | 0.10 | 84 | 1010.4 |
| 20260506023528 | 54 | 202 | 2.0 | 2.0 | 0.00 | 0.10 | 0.10 | 84 | 1010.6 |
| 20260506023026 | 54 | 214 | 1.0 | 2.0 | 0.00 | 0.10 | 0.10 | 84 | 1010.8 |
| 20260506022523 | 54 | 254 | 1.0 | 2.0 | 0.00 | 0.10 | 0.10 | 84 | 1010.6 |
| 20260506022021 | 54 | 344 | 2.0 | 2.0 | 0.00 | 0.10 | 0.10 | 85 | 1010.5 |
| 20260506021518 | 54 | 160 | 0.0 | 1.0 | 0.00 | 0.10 | 0.10 | 84 | 1010.7 |
| 20260506021015 | 55 | 193 | 1.0 | 1.0 | 0.00 | 0.10 | 0.10 | 84 | 1010.9 |
| 20260506020513 | 55 | 182 | 0.0 | 0.0 | 0.00 | 0.10 | 0.10 | 84 | 1010.6 |
| 20260506020010 | 55 | 106 | 1.0 | 2.0 | 0.00 | 0.10 | 0.10 | 84 | 1010.4 |
| 20260506015507 | 55 | 131 | 1.0 | 1.0 | 0.00 | 0.10 | 0.10 | 83 | 1010.4 |
| 20260506015004 | 55 | 183 | 1.0 | 1.0 | 0.00 | 0.10 | 0.10 | 83 | 1010.1 |
| 20260506014502 | 56 | 237 | 1.0 | 2.0 | 0.00 | 0.10 | 0.10 | 84 | 1010.0 |
| 20260506013957 | 56 | 252 | 2.0 | 2.0 | 0.00 | 0.10 | 0.10 | 84 | 1010.0 |
| 20260506013455 | 57 | 165 | 1.0 | 1.0 | 0.00 | 0.10 | 0.10 | 84 | 1010.0 |
| 20260506012951 | 57 | 247 | 4.0 | 6.0 | 0.00 | 0.10 | 0.10 | 84 | 1009.6 |
| 20260506012448 | 58 | 188 | 3.0 | 3.0 | 0.00 | 0.10 | 0.10 | 84 | 1009.5 |
| 20260506011945 | 58 | 242 | 4.0 | 6.0 | 0.00 | 0.10 | 0.10 | 84 | 1009.4 |
| 20260506011442 | 59 | 140 | 2.0 | 3.0 | 0.00 | 0.10 | 0.10 | 85 | 1009.4 |
| 20260506010939 | 60 | 246 | 3.0 | 3.0 | 0.00 | 0.10 | 0.10 | 86 | 1009.0 |
| 20260506010438 | 60 | 348 | 3.0 | 3.0 | 0.00 | 0.10 | 0.10 | 85 | 1008.9 |
| 20260506005934 | 60 | 213 | 1.0 | 1.0 | 0.00 | 0.10 | 0.10 | 85 | 1009.0 |
| 20260506005432 | 60 | 174 | 1.0 | 1.0 | 0.00 | 0.10 | 0.10 | 85 | 1008.6 |
| 20260506004926 | 60 | 234 | 3.0 | 3.0 | 0.00 | 0.10 | 0.10 | 85 | 1008.7 |
| 20260506004425 | 60 | 147 | 1.0 | 1.0 | 0.00 | 0.10 | 0.10 | 85 | 1008.7 |
| 20260506003920 | 60 | 183 | 1.0 | 2.0 | 0.00 | 0.10 | 0.10 | 85 | 1008.5 |
| 20260506003417 | 60 | 185 | 1.0 | 1.0 | 0.00 | 0.10 | 0.10 | 86 | 1008.6 |
| 20260506002914 | 60 | 124 | 1.0 | 1.0 | 0.00 | 0.10 | 0.10 | 86 | 1008.5 |
| 20260506002410 | 61 | 175 | 1.0 | 1.0 | 0.00 | 0.10 | 0.10 | 86 | 1008.6 |
| 20260506001905 | 61 | 214 | 1.0 | 1.0 | 0.00 | 0.10 | 0.10 | 86 | 1008.4 |
| 20260506001403 | 61 | 206 | 0.0 | 1.0 | 0.00 | 0.10 | 0.10 | 87 | 1008.4 |
| 20260506000900 | 61 | 207 | 0.0 | 1.0 | 0.00 | 0.10 | 0.10 | 86 | 1008.0 |
| 20260506000358 | 61 | 338 | 4.0 | 5.0 | 0.00 | 0.10 | 0.10 | 86 | 1008.2 |
| 20260505235854 | 62 | 173 | 2.0 | 2.0 | 0.00 | 0.10 | 0.10 | 85 | 1007.8 |
| 20260505235352 | 62 | 181 | 1.0 | 1.0 | 0.00 | 0.10 | 0.10 | 85 | 1007.9 |
| 20260505234848 | 62 | 176 | 1.0 | 1.0 | 0.00 | 0.10 | 0.10 | 85 | 1007.5 |
| 20260505234346 | 62 | 176 | 0.0 | 0.0 | 0.00 | 0.10 | 0.10 | 85 | 1007.8 |
| 20260505233843 | 62 | 176 | 0.0 | 1.0 | 0.00 | 0.10 | 0.10 | 85 | 1007.6 |
| 20260505233341 | 62 | 191 | 0.0 | 0.0 | 0.00 | 0.10 | 0.10 | 85 | 1007.8 |
| 20260505232838 | 62 | 191 | 1.0 | 1.0 | 0.00 | 0.10 | 0.10 | 85 | 1007.7 |
| 20260505232336 | 63 | 190 | 0.0 | 0.0 | 0.00 | 0.10 | 0.10 | 84 | 1007.8 |
| 20260505231832 | 63 | 194 | 0.0 | 0.0 | 0.00 | 0.10 | 0.10 | 84 | 1007.8 |
| 20260505231330 | 63 | 194 | 0.0 | 1.0 | 0.07 | 0.10 | 0.10 | 83 | 1007.6 |
| 20260505230828 | 63 | 191 | 0.0 | 1.0 | 0.07 | 0.10 | 0.10 | 83 | 1007.6 |
| 20260505230325 | 63 | 191 | 0.0 | 0.0 | 0.00 | 0.09 | 0.09 | 82 | 1007.3 |
| 20260505225821 | 64 | 155 | 1.0 | 1.0 | 0.00 | 0.09 | 0.09 | 81 | 1007.4 |
| 20260505225319 | 64 | 205 | 2.0 | 2.0 | 0.00 | 0.09 | 0.09 | 80 | 1007.6 |
| 20260505224814 | 64 | 173 | 1.0 | 2.0 | 0.00 | 0.09 | 0.09 | 80 | 1007.8 |
| 20260505224312 | 64 | 163 | 2.0 | 5.0 | 0.00 | 0.09 | 0.09 | 80 | 1008.0 |
| 20260505223808 | 64 | 161 | 0.0 | 0.0 | 0.05 | 0.09 | 0.09 | 81 | 1007.9 |
| 20260505223306 | 65 | 160 | 0.0 | 0.0 | 0.05 | 0.09 | 0.09 | 81 | 1007.9 |
| 20260505222801 | 65 | 160 | 0.0 | 0.0 | 0.00 | 0.08 | 0.08 | 79 | 1007.5 |
| 20260505222257 | 65 | 160 | 0.0 | 1.0 | 0.00 | 0.08 | 0.08 | 78 | 1007.5 |
| 20260505221755 | 66 | 160 | 1.0 | 1.0 | 0.00 | 0.08 | 0.08 | 78 | 1007.3 |
| 20260505221251 | 65 | 134 | 2.0 | 2.0 | 0.00 | 0.08 | 0.08 | 77 | 1006.8 |
| 20260505220748 | 66 | 160 | 0.0 | 0.0 | 0.00 | 0.08 | 0.08 | 77 | 1007.4 |
| 20260505220245 | 66 | 160 | 0.0 | 0.0 | 0.00 | 0.08 | 0.08 | 77 | 1006.8 |
| 20260505215744 | 66 | 160 | 1.0 | 2.0 | 0.00 | 0.08 | 0.08 | 77 | 1006.9 |
| 20260505215241 | 66 | 160 | 0.0 | 0.0 | 0.00 | 0.08 | 0.08 | 76 | 1007.2 |
| 20260505214739 | 66 | 160 | 0.0 | 0.0 | 0.00 | 0.08 | 0.08 | 77 | 1006.9 |
| 20260505214236 | 66 | 160 | 0.0 | 1.0 | 0.00 | 0.08 | 0.08 | 77 | 1006.8 |
| 20260505213733 | 65 | 161 | 1.0 | 1.0 | 0.00 | 0.08 | 0.08 | 76 | 1006.8 |
| 20260505213230 | 65 | 146 | 1.0 | 1.0 | 0.00 | 0.08 | 0.08 | 79 | 1006.7 |
| 20260505212726 | 64 | 133 | 1.0 | 1.0 | 0.00 | 0.08 | 0.08 | 81 | 1006.4 |
| 20260505212224 | 63 | 145 | 0.0 | 1.0 | 0.00 | 0.08 | 0.08 | 82 | 1006.4 |
| 20260505211721 | 62 | 131 | 4.0 | 5.0 | 0.00 | 0.08 | 0.08 | 83 | 1006.8 |
| 20260505211218 | 61 | 134 | 3.0 | 3.0 | 0.00 | 0.08 | 0.08 | 85 | 1006.7 |
| 20260505210714 | 62 | 164 | 1.0 | 2.0 | 0.00 | 0.08 | 0.08 | 88 | 1006.7 |
| 20260505210211 | 61 | 135 | 3.0 | 3.0 | 0.00 | 0.08 | 0.08 | 88 | 1006.4 |
| 20260505205708 | 61 | 163 | 3.0 | 3.0 | 0.00 | 0.08 | 0.08 | 88 | 1006.7 |
| 20260505205207 | 61 | 157 | 1.0 | 1.0 | 0.00 | 0.08 | 0.08 | 89 | 1006.6 |
| 20260505204703 | 61 | 155 | 1.0 | 1.0 | 0.00 | 0.08 | 0.08 | 89 | 1006.7 |
| 20260505204200 | 60 | 155 | 1.0 | 1.0 | 0.00 | 0.08 | 0.08 | 89 | 1006.8 |
| 20260505203652 | 60 | 155 | 1.0 | 1.0 | 0.00 | 0.08 | 0.08 | 88 | 1006.9 |
| 20260505203148 | 60 | 138 | 0.0 | 0.0 | 0.00 | 0.08 | 0.08 | 88 | 1007.0 |
| 20260505202644 | 60 | 291 | 4.0 | 5.0 | 0.00 | 0.08 | 0.08 | 88 | 1007.1 |
| 20260505202141 | 60 | 18 | 2.0 | 2.0 | 0.00 | 0.08 | 0.08 | 87 | 1007.3 |
| 20260505201637 | 60 | 318 | 3.0 | 3.0 | 0.00 | 0.08 | 0.08 | 87 | 1007.6 |
| 20260505201135 | 60 | 328 | 4.0 | 6.0 | 0.07 | 0.08 | 0.08 | 87 | 1007.7 |
| 20260505200633 | 60 | 273 | 6.0 | 9.0 | 0.19 | 0.08 | 0.08 | 86 | 1007.9 |
| 20260505200130 | 61 | 259 | 5.0 | 7.0 | 0.19 | 0.07 | 0.07 | 85 | 1008.1 |
| 20260505195626 | 61 | 267 | 7.0 | 11.0 | 0.07 | 0.05 | 0.05 | 84 | 1008.6 |
| 20260505195123 | 61 | 187 | 8.0 | 10.0 | 0.05 | 0.04 | 0.04 | 83 | 1008.3 |
| 20260505194620 | 62 | 314 | 13.0 | 16.0 | 0.17 | 0.04 | 0.04 | 82 | 1008.1 |
| 20260505194116 | 64 | 296 | 6.0 | 8.0 | 0.12 | 0.03 | 0.03 | 77 | 1007.6 |
| 20260505193613 | 70 | 256 | 9.0 | 13.0 | 0.00 | 0.01 | 0.01 | 62 | 1007.0 |
| 20260505193110 | 73 | 240 | 5.0 | 6.0 | 0.00 | 0.01 | 0.01 | 50 | 1006.1 |
| 20260505192609 | 74 | 226 | 4.0 | 6.0 | 0.00 | 0.01 | 0.01 | 45 | 1005.8 |
| 20260505192106 | 75 | 234 | 4.0 | 6.0 | 0.00 | 0.01 | 0.01 | 43 | 1005.5 |
| 20260505191604 | 75 | 190 | 1.0 | 2.0 | 0.00 | 0.01 | 0.01 | 45 | 1005.5 |
| 20260505191102 | 75 | 169 | 2.0 | 3.0 | 0.00 | 0.01 | 0.01 | 46 | 1005.4 |
| 20260505190556 | 75 | 184 | 3.0 | 3.0 | 0.00 | 0.01 | 0.01 | 44 | 1005.4 |
| 20260505190052 | 75 | 243 | 7.0 | 13.0 | 0.00 | 0.01 | 0.01 | 45 | 1005.3 |
| 20260505185549 | 75 | 226 | 3.0 | 3.0 | 0.00 | 0.01 | 0.01 | 47 | 1005.4 |
| 20260505185046 | 75 | 210 | 9.0 | 13.0 | 0.00 | 0.01 | 0.01 | 46 | 1005.4 |
| 20260505184542 | 75 | 108 | 4.0 | 6.0 | 0.00 | 0.01 | 0.01 | 48 | 1005.1 |
| 20260505184039 | 76 | 220 | 5.0 | 6.0 | 0.00 | 0.01 | 0.01 | 49 | 1005.3 |
| 20260505183536 | 75 | 148 | 12.0 | 17.0 | 0.00 | 0.01 | 0.01 | 48 | 1005.5 |
| 20260505183033 | 75 | 187 | 5.0 | 6.0 | 0.00 | 0.01 | 0.01 | 48 | 1005.8 |
| 20260505182530 | 75 | 167 | 9.0 | 11.0 | 0.00 | 0.01 | 0.01 | 50 | 1005.8 |
| 20260505182026 | 74 | 238 | 7.0 | 10.0 | 0.00 | 0.01 | 0.01 | 51 | 1005.7 |
| 20260505181523 | 70 | 182 | 2.0 | 2.0 | 0.00 | 0.01 | 0.01 | 63 | 1005.9 |
| 20260505181021 | 69 | 191 | 1.0 | 1.0 | 0.00 | 0.01 | 0.01 | 69 | 1005.9 |
| 20260505180516 | 67 | 196 | 1.0 | 2.0 | 0.00 | 0.01 | 0.01 | 74 | 1006.0 |
| 20260505180015 | 66 | 185 | 1.0 | 1.0 | 0.00 | 0.01 | 0.01 | 75 | 1006.7 |
| 20260505175509 | 66 | 177 | 1.0 | 1.0 | 0.00 | 0.01 | 0.01 | 78 | 1006.6 |
| 20260505175007 | 65 | 222 | 4.0 | 5.0 | 0.07 | 0.01 | 0.01 | 76 | 1006.8 |
| 20260505174504 | 65 | 161 | 0.0 | 1.0 | 0.07 | 0.01 | 0.01 | 75 | 1007.0 |
| 20260505173959 | 66 | 174 | 1.0 | 1.0 | 0.00 | 0.00 | 0.00 | 71 | 1007.2 |
| 20260505173455 | 71 | 220 | 11.0 | 13.0 | 0.00 | 0.00 | 0.00 | 64 | 1006.8 |
| 20260505172953 | 73 | 163 | 1.0 | 1.0 | 0.00 | 0.00 | 0.00 | 55 | 1006.6 |
| 20260505172451 | 74 | 269 | 3.0 | 5.0 | 0.00 | 0.00 | 0.00 | 48 | 1006.4 |
| 20260505171951 | 74 | 157 | 1.0 | 2.0 | 0.00 | 0.00 | 0.00 | 48 | 1006.6 |
| 20260505171447 | 74 | 222 | 6.0 | 9.0 | 0.00 | 0.00 | 0.00 | 48 | 1006.6 |
| 20260505170944 | 75 | 180 | 2.0 | 2.0 | 0.00 | 0.00 | 0.00 | 49 | 1006.4 |
| 20260505170441 | 75 | 167 | 5.0 | 7.0 | 0.00 | 0.00 | 0.00 | 46 | 1006.3 |
| 20260505165936 | 76 | 210 | 6.0 | 7.0 | 0.00 | 0.00 | 0.00 | 46 | 1006.3 |
| 20260505165432 | 76 | 262 | 3.0 | 6.0 | 0.00 | 0.00 | 0.00 | 45 | 1005.9 |
| 20260505164922 | 76 | 178 | 3.0 | 3.0 | 0.00 | 0.00 | 0.00 | 45 | 1005.9 |
| 20260505164419 | 76 | 206 | 2.0 | 2.0 | 0.00 | 0.00 | 0.00 | 47 | 1006.1 |
| 20260505163917 | 76 | 184 | 2.0 | 2.0 | 0.00 | 0.00 | 0.00 | 43 | 1006.2 |
| 20260505163416 | 76 | 299 | 4.0 | 5.0 | 0.00 | 0.00 | 0.00 | 43 | 1006.1 |
| 20260505162914 | 77 | 194 | 5.0 | 6.0 | 0.00 | 0.00 | 0.00 | 45 | 1006.1 |
| 20260505162410 | 76 | 230 | 5.0 | 6.0 | 0.00 | 0.00 | 0.00 | 45 | 1006.3 |
| 20260505161907 | 75 | 235 | 7.0 | 9.0 | 0.00 | 0.00 | 0.00 | 45 | 1006.6 |
| 20260505161404 | 75 | 212 | 6.0 | 7.0 | 0.00 | 0.00 | 0.00 | 46 | 1006.4 |
| 20260505160901 | 75 | 191 | 3.0 | 5.0 | 0.00 | 0.00 | 0.00 | 46 | 1006.4 |
| 20260505160359 | 75 | 321 | 5.0 | 7.0 | 0.00 | 0.00 | 0.00 | 46 | 1006.7 |
| 20260505153338 | 77 | 226 | 8.0 | 9.0 | 0.00 | 0.00 | 0.00 | 45 | 1006.8 |
| 20260505152834 | 75 | 164 | 1.0 | 2.0 | 0.00 | 0.00 | 0.00 | 46 | 1006.8 |
| 20260505152331 | 76 | 171 | 5.0 | 9.0 | 0.00 | 0.00 | 0.00 | 45 | 1006.7 |
| 20260505151826 | 74 | 179 | 3.0 | 3.0 | 0.00 | 0.00 | 0.00 | 49 | 1007.0 |
| 20260505151323 | 74 | 224 | 11.0 | 14.0 | 0.00 | 0.00 | 0.00 | 47 | 1006.7 |
| 20260505150820 | 75 | 141 | 13.0 | 17.0 | 0.00 | 0.00 | 0.00 | 45 | 1006.3 |
| 20260505150317 | 75 | 191 | 4.0 | 5.0 | 0.00 | 0.00 | 0.00 | 47 | 1006.4 |
| 20260505140241 | 71 | 184 | 5.0 | 6.0 | 0.00 | 0.00 | 0.00 | 54 | 1007.3 |
| 20260505130205 | 66 | 269 | 3.0 | 7.0 | 0.00 | 0.00 | 0.00 | 59 | 1007.7 |
| 20260505124655 | 64 | 158 | 0.0 | 1.0 | 0.00 | 0.00 | 0.00 | 64 | 1007.9 |
| 20260505124151 | 63 | 162 | 2.0 | 3.0 | 0.00 | 0.00 | 0.00 | 64 | 1008.1 |
| 20260505123648 | 63 | 204 | 6.0 | 7.0 | 0.00 | 0.00 | 0.00 | 63 | 1008.1 |
| 20260505123144 | 63 | 183 | 5.0 | 7.0 | 0.00 | 0.00 | 0.00 | 63 | 1008.2 |
| 20260505122640 | 63 | 219 | 3.0 | 3.0 | 0.00 | 0.00 | 0.00 | 64 | 1008.2 |
| 20260505122138 | 63 | 187 | 0.0 | 1.0 | 0.00 | 0.00 | 0.00 | 63 | 1008.1 |
| 20260505121628 | 63 | 230 | 4.0 | 5.0 | 0.00 | 0.00 | 0.00 | 62 | 1008.3 |
| 20260505121120 | 63 | 211 | 1.0 | 2.0 | 0.00 | 0.00 | 0.00 | 63 | 1008.0 |
| 20260505120615 | 63 | 193 | 2.0 | 2.0 | 0.00 | 0.00 | 0.00 | 63 | 1007.9 |
| 20260505120111 | 63 | 131 | 3.0 | 3.0 | 0.00 | 0.00 | 0.00 | 62 | 1007.8 |
| 20260505115606 | 63 | 171 | 4.0 | 6.0 | 0.00 | 0.00 | 0.00 | 62 | 1007.8 |
| 20260505115104 | 63 | 186 | 1.0 | 1.0 | 0.00 | 0.00 | 0.00 | 63 | 1008.0 |
| 20260505114601 | 62 | 168 | 0.0 | 1.0 | 0.00 | 0.00 | 0.00 | 63 | 1008.0 |
| 20260505114057 | 62 | 148 | 3.0 | 5.0 | 0.00 | 0.00 | 0.00 | 63 | 1007.9 |
| 20260505113554 | 62 | 176 | 3.0 | 3.0 | 0.00 | 0.00 | 0.00 | 62 | 1007.9 |
| 20260505113050 | 62 | 111 | 3.0 | 5.0 | 0.00 | 0.00 | 0.00 | 63 | 1007.8 |
| 20260505112546 | 62 | 163 | 5.0 | 7.0 | 0.00 | 0.00 | 0.00 | 63 | 1007.9 |
| 20260505112044 | 62 | 140 | 4.0 | 6.0 | 0.00 | 0.00 | 0.00 | 64 | 1008.0 |
| 20260505111538 | 61 | 138 | 3.0 | 5.0 | 0.00 | 0.00 | 0.00 | 64 | 1008.0 |
| 20260505111035 | 61 | 167 | 5.0 | 6.0 | 0.00 | 0.00 | 0.00 | 65 | 1008.0 |
| 20260505110532 | 61 | 108 | 5.0 | 10.0 | 0.00 | 0.00 | 0.00 | 65 | 1008.1 |
| 20260505102004 | 61 | 189 | 3.0 | 5.0 | 0.00 | 0.00 | 0.00 | 60 | 1007.6 |
| 20260505101503 | 61 | 232 | 2.0 | 2.0 | 0.00 | 0.00 | 0.00 | 60 | 1007.6 |
| 20260505100958 | 61 | 195 | 1.0 | 1.0 | 0.00 | 0.00 | 0.00 | 60 | 1007.5 |
| 20260505100455 | 61 | 204 | 3.0 | 5.0 | 0.00 | 0.00 | 0.00 | 60 | 1007.6 |
| 20260505095952 | 61 | 232 | 3.0 | 3.0 | 0.00 | 0.00 | 0.00 | 60 | 1007.5 |
| 20260505095448 | 62 | 194 | 1.0 | 1.0 | 0.00 | 0.00 | 0.00 | 59 | 1007.3 |
| 20260505094944 | 61 | 191 | 1.0 | 1.0 | 0.00 | 0.00 | 0.00 | 59 | 1007.2 |
| 20260505094441 | 61 | 184 | 0.0 | 1.0 | 0.00 | 0.00 | 0.00 | 60 | 1007.1 |
| 20260505093937 | 61 | 151 | 1.0 | 1.0 | 0.00 | 0.00 | 0.00 | 59 | 1007.1 |
| 20260505093434 | 61 | 180 | 1.0 | 1.0 | 0.00 | 0.00 | 0.00 | 60 | 1007.1 |
| 20260505092932 | 61 | 191 | 2.0 | 3.0 | 0.00 | 0.00 | 0.00 | 59 | 1006.9 |
| 20260505092429 | 62 | 201 | 2.0 | 2.0 | 0.00 | 0.00 | 0.00 | 59 | 1006.9 |
| 20260505091926 | 62 | 199 | 4.0 | 5.0 | 0.00 | 0.00 | 0.00 | 58 | 1007.1 |
| 20260505091424 | 61 | 177 | 1.0 | 2.0 | 0.00 | 0.00 | 0.00 | 59 | 1007.1 |
| 20260505090922 | 61 | 203 | 2.0 | 3.0 | 0.00 | 0.00 | 0.00 | 59 | 1006.9 |
| 20260505090420 | 61 | 199 | 2.0 | 2.0 | 0.00 | 0.00 | 0.00 | 59 | 1006.9 |
| 20260505085917 | 60 | 176 | 0.0 | 1.0 | 0.00 | 0.00 | 0.00 | 60 | 1006.9 |
| 20260505085415 | 60 | 174 | 0.0 | 1.0 | 0.00 | 0.00 | 0.00 | 60 | 1007.1 |
| 20260505084913 | 60 | 163 | 2.0 | 2.0 | 0.00 | 0.00 | 0.00 | 61 | 1006.9 |
| 20260505084411 | 60 | 156 | 0.0 | 1.0 | 0.00 | 0.00 | 0.00 | 60 | 1006.8 |
| 20260505083909 | 60 | 140 | 0.0 | 0.0 | 0.00 | 0.00 | 0.00 | 60 | 1006.6 |
| 20260505083406 | 60 | 177 | 3.0 | 3.0 | 0.00 | 0.00 | 0.00 | 59 | 1006.8 |
| 20260505082902 | 60 | 124 | 0.0 | 2.0 | 0.00 | 0.00 | 0.00 | 59 | 1006.7 |
| 20260505082357 | 60 | 126 | 2.0 | 2.0 | 0.00 | 0.00 | 0.00 | 59 | 1006.7 |
| 20260505081855 | 61 | 162 | 2.0 | 2.0 | 0.00 | 0.00 | 0.00 | 59 | 1006.8 |
| 20260505081351 | 61 | 120 | 3.0 | 3.0 | 0.00 | 0.00 | 0.00 | 58 | 1006.9 |
| 20260505080848 | 62 | 145 | 1.0 | 2.0 | 0.00 | 0.00 | 0.00 | 57 | 1006.9 |
| 20260505080344 | 61 | 170 | 2.0 | 2.0 | 0.00 | 0.00 | 0.00 | 57 | 1007.1 |
| 20260505075840 | 62 | 155 | 1.0 | 1.0 | 0.00 | 0.00 | 0.00 | 57 | 1006.8 |
| 20260505075337 | 62 | 124 | 3.0 | 3.0 | 0.00 | 0.00 | 0.00 | 57 | 1006.9 |
| 20260505074834 | 62 | 147 | 3.0 | 3.0 | 0.00 | 0.00 | 0.00 | 57 | 1007.0 |
| 20260505074331 | 62 | 164 | 2.0 | 2.0 | 0.00 | 0.00 | 0.00 | 56 | 1006.8 |
| 20260505073828 | 62 | 182 | 3.0 | 3.0 | 0.00 | 0.00 | 0.00 | 56 | 1006.9 |
| 20260505073326 | 62 | 153 | 2.0 | 3.0 | 0.00 | 0.00 | 0.00 | 56 | 1006.9 |
| 20260505072823 | 62 | 138 | 3.0 | 3.0 | 0.00 | 0.00 | 0.00 | 56 | 1007.0 |
| 20260505072319 | 62 | 154 | 1.0 | 1.0 | 0.00 | 0.00 | 0.00 | 56 | 1006.9 |
| 20260505071815 | 62 | 191 | 5.0 | 6.0 | 0.00 | 0.00 | 0.00 | 55 | 1007.0 |
| 20260505071312 | 61 | 164 | 0.0 | 0.0 | 0.00 | 0.00 | 0.00 | 57 | 1007.1 |
| 20260505070810 | 61 | 166 | 2.0 | 2.0 | 0.00 | 0.00 | 0.00 | 56 | 1007.0 |
| 20260505070306 | 61 | 156 | 1.0 | 1.0 | 0.00 | 0.00 | 0.00 | 57 | 1007.1 |
| 20260505065801 | 61 | 154 | 1.0 | 1.0 | 0.00 | 0.00 | 0.00 | 56 | 1006.9 |
| 20260505065258 | 61 | 154 | 0.0 | 0.0 | 0.00 | 0.00 | 0.00 | 57 | 1007.2 |
| 20260505064755 | 60 | 146 | 0.0 | 0.0 | 0.00 | 0.00 | 0.00 | 57 | 1007.2 |
| 20260505064252 | 60 | 172 | 0.0 | 1.0 | 0.00 | 0.00 | 0.00 | 57 | 1007.1 |
| 20260505063750 | 60 | 152 | 0.0 | 0.0 | 0.00 | 0.00 | 0.00 | 56 | 1007.2 |
| 20260505063247 | 60 | 153 | 1.0 | 1.0 | 0.00 | 0.00 | 0.00 | 57 | 1007.0 |
| 20260505062743 | 60 | 154 | 0.0 | 1.0 | 0.00 | 0.00 | 0.00 | 57 | 1007.0 |
| 20260505062241 | 60 | 194 | 4.0 | 6.0 | 0.00 | 0.00 | 0.00 | 56 | 1007.1 |
| 20260505061737 | 60 | 132 | 3.0 | 3.0 | 0.00 | 0.00 | 0.00 | 57 | 1007.0 |
| 20260505061235 | 60 | 115 | 1.0 | 2.0 | 0.00 | 0.00 | 0.00 | 58 | 1006.9 |
| 20260505060732 | 60 | 161 | 2.0 | 2.0 | 0.00 | 0.00 | 0.00 | 57 | 1007.1 |
| 20260505060230 | 60 | 148 | 1.0 | 2.0 | 0.00 | 0.00 | 0.00 | 57 | 1007.0 |
| 20260505055724 | 60 | 134 | 5.0 | 6.0 | 0.00 | 0.00 | 0.00 | 56 | 1006.9 |
| 20260505055221 | 60 | 125 | 3.0 | 5.0 | 0.00 | 0.00 | 0.00 | 56 | 1007.3 |
| 20260505054719 | 60 | 128 | 3.0 | 3.0 | 0.00 | 0.00 | 0.00 | 56 | 1007.1 |
| 20260505054216 | 60 | 128 | 2.0 | 2.0 | 0.00 | 0.00 | 0.00 | 56 | 1007.3 |
| 20260505053714 | 60 | 123 | 3.0 | 3.0 | 0.00 | 0.00 | 0.00 | 56 | 1006.9 |
| 20260505053210 | 61 | 126 | 4.0 | 5.0 | 0.00 | 0.00 | 0.00 | 55 | 1007.1 |
| 20260505052708 | 61 | 126 | 3.0 | 3.0 | 0.00 | 0.00 | 0.00 | 55 | 1007.0 |
| 20260505052204 | 61 | 137 | 3.0 | 5.0 | 0.00 | 0.00 | 0.00 | 54 | 1007.0 |
| 20260505051702 | 61 | 122 | 2.0 | 2.0 | 0.00 | 0.00 | 0.00 | 55 | 1007.3 |
| 20260505051200 | 61 | 122 | 3.0 | 3.0 | 0.00 | 0.00 | 0.00 | 54 | 1007.3 |
| 20260505050657 | 62 | 127 | 2.0 | 2.0 | 0.00 | 0.00 | 0.00 | 54 | 1007.2 |
| 20260505050155 | 62 | 133 | 3.0 | 5.0 | 0.00 | 0.00 | 0.00 | 53 | 1007.3 |
| 20260505041625 | 63 | 114 | 3.0 | 3.0 | 0.00 | 0.00 | 0.00 | 51 | 1007.0 |
| 20260505041123 | 63 | 158 | 2.0 | 2.0 | 0.00 | 0.00 | 0.00 | 51 | 1006.9 |
| 20260505040619 | 63 | 195 | 4.0 | 5.0 | 0.00 | 0.00 | 0.00 | 51 | 1007.1 |
| 20260505040117 | 63 | 188 | 7.0 | 8.0 | 0.00 | 0.00 | 0.00 | 51 | 1007.1 |
| 20260505035613 | 63 | 178 | 3.0 | 3.0 | 0.00 | 0.00 | 0.00 | 50 | 1007.1 |
| 20260505035109 | 63 | 140 | 3.0 | 3.0 | 0.00 | 0.00 | 0.00 | 50 | 1007.1 |
| 20260505034606 | 63 | 153 | 2.0 | 2.0 | 0.00 | 0.00 | 0.00 | 50 | 1007.1 |
| 20260505034103 | 63 | 146 | 3.0 | 5.0 | 0.00 | 0.00 | 0.00 | 50 | 1007.0 |
| 20260505033559 | 64 | 165 | 1.0 | 2.0 | 0.00 | 0.00 | 0.00 | 50 | 1007.2 |
| 20260505033058 | 64 | 194 | 3.0 | 5.0 | 0.00 | 0.00 | 0.00 | 49 | 1007.1 |